Flag for U.S.A. Weather past 2 weeks in Bakersfield, California, U.S.A.

Now
60 °F

Clear.


Feels Like: 60 °F
Forecast: 56 / 86 °F
Wind: 5 mph from Southeast

Location: Meadows Field

Current Time: Apr 18, 2015 at 2:57:52 AM

Latest Report: Apr 18, 2015 at 1:54 AM


Visibility: 10 mi

Pressure: 30.01 "Hg

Humidity: 30%

Dew point: 28 °F

Location of BakersfieldLocation

Historic Weather in Bakersfield — Graph

°F

Bakersfield temperature yesterday

Maximum temperature yesterday: 85 °F (at 3:54 PM)
Minimum temperature yesterday: 54 °F (at 6:54 AM)
Average temperature yesterday: 71 °F

Past Weeks' High & Low Weather Summary

 TemperatureHumidityPressure
High89 °F (Apr 13, 4:54 PM)89% (Apr 8, 6:54 AM)30.26 "Hg (Apr 8, 6:54 AM)
Low44 °F (Apr 8, 6:54 AM)5% (Apr 16, 12:54 PM)29.79 "Hg (Apr 5, 6:54 PM)
Average62 °F37%30.00 "Hg
* Reported Apr 3 12:54 AM — Apr 18 12:54 AM, Bakersfield, Weather by CustomWeather, © 2015

Note: Actual official high and low records may vary slightly from our data, if they occured in-between our weather recording intervals... More about our weather records

Advertising

Bakersfield weather history for previous 24 hours

 ConditionsComfort  
Time TempWeatherWind HumidityBarometerVisibility
12:54 AM
Sat, Apr 18
62 °FClear.5 mph30%30.01 "Hg10 mi
11:54 PM
Fri, Apr 17
63 °FClear.6 mph30%30.01 "Hg10 mi
10:54 PM68 °FClear.No wind19%29.98 "Hg10 mi
9:54 PM68 °FClear.7 mph19%29.98 "Hg10 mi
8:54 PM69 °FClear.6 mph18%29.96 "Hg10 mi
7:54 PM77 °FSunny.8 mph14%29.94 "Hg10 mi
6:54 PM81 °FSunny.8 mph13%29.93 "Hg10 mi
5:54 PM83 °FSunny.14 mph11%29.93 "Hg10 mi
4:54 PM84 °FSunny.10 mph8%29.94 "Hg10 mi
3:54 PM85 °FSunny.7 mph10%29.96 "Hg10 mi
2:54 PM84 °FSunny.10 mph11%29.98 "Hg10 mi
1:54 PM82 °FSunny.7 mph11%30.00 "Hg10 mi
12:54 PM80 °FSunny.6 mph14%30.03 "Hg10 mi
11:54 AM77 °FSunny.N/A14%30.05 "Hg10 mi
10:54 AM76 °FSunny.5 mph13%30.06 "Hg10 mi
9:54 AM73 °FSunny.3 mph12%30.07 "Hg10 mi
8:54 AM67 °FSunny.5 mph16%30.07 "Hg10 mi
7:54 AM62 °FSunny.3 mph22%30.07 "Hg10 mi
6:54 AM54 °FClear.3 mph30%30.06 "Hg10 mi
5:54 AM61 °FClear.8 mph20%30.04 "Hg10 mi
4:54 AM61 °FClear.6 mph20%30.04 "Hg10 mi
3:54 AM56 °FClear.8 mph24%30.05 "Hg10 mi
2:54 AM59 °FClear.6 mph24%30.04 "Hg10 mi
Weather by CustomWeather, © 2015

See weather overviewHow to use our weather pages